sat.trackr.live / text

‹ back to catalog

LARETS

NORAD 27944 · 2003-042F

PAYLOAD ACTIVE UNKNOWN

§ Identity

Operator
Country
CIS
Launch date
2003-09-27
Launch site
PLMSC
Launch vehicle
Mass (kg)
RCS (m²)
0.14

Purposes: science

External: N2YO · Heavens-Above · Gunter

§ Orbital elements

Epoch: 2026-05-25T03:34:33.537792Z

Period
98.37 min
Inclination
98.4133°
Eccentricity
0.0013480
Mean motion
14.63864271 rev/d
Perigee alt
671.2 km
Apogee alt
690.2 km
Semi-major
7,058.9 km
B*
1.8267e-5
RAAN
306.8742°
Arg perigee
106.6861°
Mean anomaly
253.5821°
Rev number
20,999

§ Raw data

LARETS1 27944U 03042F   26145.14899928  .00000045  00000+0  18267-4 0  99992 27944  98.4133 306.8742 0013480 106.6861 253.5821 14.63864271209997

JSON: /api/v1/satellites/27944 · /tle

For live sub-satellite position, see the globe view (requires WebGL).

§ Visibility from observer

Set your observer location to see the next 7 days of passes ≥ 10°. The values pass through the URL so the page stays shareable.

No JS? Fill the form by hand. The geolocation button needs JavaScript.